Regional Weather Roundup
Issued by NWS Midland/Odessa, TX

Skip options and go directly to product.
Home | Oldest Version | Previous Version | Current Version | All | Text Only | Save Text | Print | Product List | Glossary On

Skip product version selection by date and time.   
688
ASUS44 KMAF 280710
RWRMAF
MIDLAND AREA WEATHER ROUNDUP
NATIONAL WEATHER SERVICE MIDLAND TX
100 AM CST SAT FEB 28 2015

...IN SOUTHWEST TEXAS AND SOUTHEAST NEW MEXICO...

CITY           SKY/WX    TMP DP  RH WIND       PRES   REMARKS
ALPINE         CLOUDY    27  26  97 NE3       30.11F
ANDREWS        CLOUDY    17  15  95 E8        30.20F FOG     WCI   6
ARTESIA          N/A     21  21 100 SE9       30.15F WCI  11
BIG SPRING     CLOUDY    19  17  89 NE5       30.26F WCI  13
CARLSBAD       CLOUDY    23  20  88 E12       30.15F FOG     WCI  12
DRYDEN           N/A     33  31  92 NE9       30.17S WCI  25
FORT STOCKTON  CLOUDY    24  24 100 E14       30.15F FOG     WCI  12
GUAD PASS      CLOUDY    18  15  88 NE17      29.98R FOG     WCI   3
HOBBS          CLOUDY    16  16 100 E9        30.16F FOG     WCI   4
MARFA          CLOUDY    27  25  93 NE10      30.04F WCI  17
MIDLAND AIRPK  CLOUDY    20  18  92 E6        30.22F FOG     WCI  13
MIDLAND INTL   CLOUDY    20  18  92 E10       30.20F FOG     WCI   9
ODESSA         CLOUDY    20  17  88 E9        30.20F FOG     WCI   9
PECOS          CLOUDY    24  22  94 E10       30.19F FOG     WCI  13
PRESIDIO       CLOUDY    35  29  78 NE14G20   30.08R WCI  26
SEMINOLE       CLOUDY    17  15  93 E10       30.21S FOG     WCI   5
SNYDER         CLOUDY    16  15  93 NE9       30.28R FOG     WCI   5
WINK           CLOUDY    22  18  85 E9        30.18F WCI  12
$$
...OTHER STATIONS IN TEXAS...

CITY           SKY/WX    TMP DP  RH WIND       PRES   REMARKS
ABILENE        CLOUDY    21  19  92 E6        30.31F FOG     WCI  13
AMARILLO       FLURRIES  11   9  92 S9        30.20F WCI  -2
AUSTIN         CLOUDY    31  28  89 N14       30.33F WCI  21
BROWNSVILLE    CLOUDY    56  53  90 NW9       30.17F FOG
CORPUS CHRISTI LGT RAIN  45  43  93 NE21      30.21F FOG     WCI  37
DALLAS FTW     FRZ RAIN  26  23  88 NE9       30.40F WCI  17
DEL RIO        LGT RAIN  36  34  92 E12       30.26S FOG     WCI  28
EL PASO        MOCLDY    29  20  69 NE8       29.96S WCI  21
HOUSTON INT    MOCLDY    41  30  65 NE8       30.34F WCI  36
LUBBOCK        FRZ DRZL  13  12  96 E7        30.21F WCI   3
SAN ANGELO     CLOUDY    24  22  91 E12       30.27F FOG     WCI  13
SAN ANTONIO    CLOUDY    34  30  85 NE12      30.26F WCI  25
WACO           CLOUDY    28  25  88 N10       30.39F WCI  19
WICHITA FALLS  NOT AVBL
$$
...OTHER LOCATIONS IN NEW MEXICO...

CITY           SKY/WX    TMP DP  RH WIND       PRES   REMARKS
ALAMAGORDO     PTCLDY    27  23  86 MISG      29.97S
ALBUQUERQUE    LGT SNOW  21  18  88 N7        29.90F FOG     WCI  12
CANNON AFB     LGT SNOW  12   9  90 SE9       30.11F VSB 3/4 WCI  -1
CLOVIS         CLOUDY    10   9  92 SE10      30.12F WCI  -3
HOLLOMAN AFB   PTCLDY    28  20  71 S12       29.95F WCI  18
ROSWELL        CLOUDY    21  18  88 SE14      30.13F WCI   8
RUIDOSO        FOG       12  10  92 SE10      29.93F VSB<1/4 WCI  -1
SANTA FE       LGT SNOW  16  11  80 SE13      29.88F WCI   2
TRUTH OR CONSE CLEAR     33  27  78 CALM      29.87F
TUCUMCARI      CLOUDY    15  11  83 S13       30.11S WCI   1
$$

USA.gov is the U.S. government's official web portal to all federal, state and local government web resources and services.